IABS R/B, 22916

Orbit data source: Space-Track

IABS R/B, 22916 is space debris in GEO originally from a launch on Sun, 28 Nov 1993 UTC launched from the Air Force Eastern Test Range (AFETR). Debris objects in space refer to the collection of defunct objects orbiting the Earth. Examples of debris include non-operational satellites, rocket bodies, and fragments generated from explosions, collisions, or faulty payload assembly.

Loading next visibility...
IABS R/B details
Identifier
22916, 1993-074B
Orbit
GEO
Last TLE update2 days ago
Origin
Flag of USUSAF SMC (US)
ManufacturerMM/Valley Forge
MissionSpacecraft
Bus & MotorR-4D, R-4D-12 X2
Mass270 kg wet, 270 kg dry
Launch date (UTC)
1993-11-28 (31 years ago)
Launch vehicleUnknown
Launch site
Air Force Eastern Test Range (AFETR)
Object type
Payload
Rocket body
Debris
Shape & HBRCyl, 2.9 m
Radar Cross Section4.851 m²

Expand to show TLE details & history

TLE from 2 days ago
0 IABS R/B
1 22916U 93074B   25045.94284087  .00000090  00000-0  00000-0 0  9990
2 22916  14.1302 345.6612 0063934  93.6159 267.1401  0.99980529 21036
Epoch: 2025-02-14T22:37Z
Definitive object data (Epoch: 2025-02-14T22:37:41.451Z)
Latitude0.00001°
Longitude-138.91548°
Altitude35,883.995 km
Speed3.071 km/s
True Right ascension23h 02m 49s
True Declination0° 00' 00"
Sunlit
Object was in daylight at TLE epoch
Visualization TLE readout
Latitude-7.25392°
Longitude71.41967°
Altitude35,991.279 km
Speed3.063 km/s
Apparent Right ascension12h 47m 18s
Apparent Declination-13° 52' 35"
Sunlit
Object is in daylight
Visualization observer readout
Local Sidereal Time15:23:33
Azimuth222.498° SW
Elevation25.105°
Doppler factor1
Orbital elements
Apogee altitude36,139.524 km
Perigee altitude35,599.312 km
Semi-major axis42,247.555 km
Eccentricity0.0063934
Inclination14.1302°
RAAN345.6612°
Arg. of periapsis93.6159°
True anomaly266.40869°
Mean anomaly267.1401°
Eccentric anomaly266.77437°
Mean motion0.24994 °/min
BSTARUnknown
Orbital period1440.33 mins
Loading historical data...
22916 neighbors
Authenticating...
Loading maneuver chart data...
Loading historical data...
Loading historical data...
Loading historical data...
Loading historical data...
Loading historical data...
Loading historical data...
Loading historical data...
Other satellites on launch #74 in the year 1993 (1993-11-28 UTC)

IABS R/B Visibility forecast

Observer location: undefined°, undefined

Span
Click to sort rows by Start time (UTC) header in descending order
Start Az.
Max El. time (UTC)
Max El. Az.
Max El.
End time (UTC)
End Az.
1440 mins2025-02-16 12:36:59.754Z222.487° SW2025-02-17 05:08:59.754Z239.887° WSW34.521°2025-02-17 12:36:59.754Z223.545° SW
|